Regional Weather Roundup
Issued by NWS

Home | Current Version | Previous Version | Text Only | Print | Product List | Glossary On
Versions: 1 2 3 4 5 6 7 8 9 10 11 12 13 14 15 16 17 18 19 20 21 22 23 24 25 26 27 28 29 30 31 32 33 34 35 36 37 38 39 40 41 42 43 44 45 46 47 48 49 50
000
ASUS43 KDTX 010610
RWRMI
MICHIGAN HOURLY REGIONAL WEATHER ROUNDUP
NATIONAL WEATHER SERVICE DETROIT/PONTIAC MI
100 AM EST SUN MAR 01 2015

NOTE: "FAIR" INDICATES FEW OR NO CLOUDS BELOW 12,000 FEET WITH NO
SIGNIFICANT WEATHER AND/OR OBSTRUCTION TO VISIBILITY.

MIZ047>049-052>055-059>063-066>070-074>076-081>083-010700-
SOUTHEAST LOWER MICHIGAN

CITY           SKY/WX    TMP DP  RH WIND       PRES   REMARKS
ADRIAN         LGT SNOW  14  10  84 E3        30.49F FOG
6HR MIN TEMP:  13; 6HR MAX TEMP:  15; 6HR PCP: TRACE;

ALMA           CLOUDY    15   4  61 S5        30.49S
ANN ARBOR      LGT SNOW  13   9  84 SE3       30.50F FOG
BAD AXE        MOCLDY    11   4  73 S5        30.52S
DETROIT CITY   CLOUDY    17   5  59 S6        30.53F
6HR MIN TEMP:  15; 6HR MAX TEMP:  17;

DETROIT        LGT SNOW  16  11  80 CALM      30.53F
6HR MIN TEMP:  15; 6HR MAX TEMP:  17; 6HR PCP:  0.01;

FLINT          CLOUDY    17   2  51 S6        30.50F
6HR MIN TEMP:  15; 6HR MAX TEMP:  20;

GROSSE ILE     LGT SNOW  16  10  79 CALM      30.51F
HILLSDALE      LGT SNOW  14  11  87 SE3       30.43F
6HR MIN TEMP:  14; 6HR MAX TEMP:  16;

HOWELL         LGT SNOW  15   5  66 S6        30.48F

CITY           SKY/WX    TMP DP  RH WIND       PRES   REMARKS
JACKSON        LGT SNOW  14   8  77 SE5       30.47F
6HR MIN TEMP:  14; 6HR MAX TEMP:  16; 6HR PCP: TRACE;

LAMBERTVILLE   LGT SNOW  18  14  86 CALM      30.51F
LANSING        LGT SNOW  16   5  62 S9        30.49F
6HR MIN TEMP:  16; 6HR MAX TEMP:  19; 6HR PCP: TRACE;

LAPEER         NOT AVBL
MASON          LGT SNOW  15   7  71 S5        30.48F
MONROE         LGT SNOW  16  12  86 SE3       30.50F
MT. CLEMENS    CLOUDY    13   6  73 S3        30.51F
6HR MIN TEMP:   6; 6HR MAX TEMP:  13;

PONTIAC        LGT SNOW  14   6  70 S3        30.49S
6HR MIN TEMP:  14; 6HR MAX TEMP:  18; 6HR PCP: TRACE;

PORT HOPE        N/A     13   1  59 VRB6      30.51S
6HR MIN TEMP:   8; 6HR MAX TEMP:  14;

PORT HURON     CLOUDY    12   5  73 CALM      30.53F
TRI CITIES     CLOUDY    15   3  59 CALM      30.50F
6HR MIN TEMP:  12; 6HR MAX TEMP:  18;

YPSILANTI      LGT SNOW  17   9  70 E10       30.51F
6HR MIN TEMP:  13; 6HR MAX TEMP:  18; 6HR PCP: TRACE;

$$
MIZ043>046-050>051-056>058-064>065-071>073-077>080-010700-
SOUTHWEST LOWER MICHIGAN

CITY           SKY/WX    TMP DP  RH WIND       PRES   REMARKS
BATTLE CREEK   LGT SNOW  15  10  80 SE3       30.46F
6HR MIN TEMP:  15; 6HR MAX TEMP:  19; 6HR PCP: TRACE;

BENTON HARBOR  LGT SNOW  16  14  92 SE5       30.47F FOG
6HR MIN TEMP:  16; 6HR MAX TEMP:  18; 6HR PCP: TRACE;

BIG RAPIDS     CLOUDY    12   1  62 CALM      30.43F
6HR MIN TEMP:  10; 6HR MAX TEMP:  18;

COLDWATER      LGT SNOW  14  11  86 CALM      30.46F
6HR MIN TEMP:  14; 6HR MAX TEMP:  16;

HOLLAND        LGT SNOW  17  11  77 S6        30.49F
6HR MIN TEMP:  13; 6HR MAX TEMP:  19; 6HR PCP: TRACE;

GRAND RAPIDS   LGT SNOW  15   9  76 S8        30.48F
6HR MIN TEMP:  15; 6HR MAX TEMP:  17; 6HR PCP:  0.01;

KALAMAZOO      LGT SNOW  15  10  80 CALM      30.47F
6HR MIN TEMP:  15; 6HR MAX TEMP:  18;

MARSHALL       LGT SNOW  13   9  84 CALM      30.47S
MUSKEGON       LGT SNOW  17   8  67 S7        30.48F
6HR MIN TEMP:  13; 6HR MAX TEMP:  17; 6HR PCP: TRACE;

$$
MIZ016>042-010700-
NORTHERN LOWER MICHIGAN

CITY           SKY/WX    TMP DP  RH WIND       PRES   REMARKS
ALPENA         MOCLDY    13   2  61 S5        30.46F
6HR MIN TEMP:  12; 6HR MAX TEMP:  25;

BEAVER ISLAND  PTCLDY    16   5  61 S8        30.40F
6HR MIN TEMP:  16; 6HR MAX TEMP:  18;

BELLAIRE       PTCLDY    -1  -4  85 CALM      30.47S
6HR MIN TEMP:  -1; 6HR MAX TEMP:  21;

CADILLAC         N/A     11   2  65 S3        30.39F
CHARLEVOIX     PTCLDY    11   5  74 CALM      30.45F
FRANKFORT      CLOUDY    17   5  59 S10       30.43F
GAYLORD        PTCLDY     8  -1  66 S5        30.39F
6HR MIN TEMP:   7; 6HR MAX TEMP:  18;

GRAYLING       PTCLDY     9  -2  60 CALM      30.43S
6HR MIN TEMP:   8; 6HR MAX TEMP:  19;

HARBOR SPRINGS CLEAR      2  -1  85 CALM      30.43F
HOUGHTON LAKE  MOCLDY    13  -2  51 SW6       30.43F
6HR MIN TEMP:  10; 6HR MAX TEMP:  17;

MANISTEE       MOCLDY    14   1  57 SE6       30.44F
OSCODA         CLOUDY    12   2  64 SW7       30.49S
PELLSTON       PTCLDY   -10 -14  82 S6        30.43F
6HR MIN TEMP: -12; 6HR MAX TEMP:  17;

TRAVERSE CITY  MOCLDY    13   5  70 SE3       30.43F
6HR MIN TEMP:   9; 6HR MAX TEMP:  20;

$$
MIZ007>008-015-010700-
EASTERN UPPER MICHIGAN

CITY           SKY/WX    TMP DP  RH WIND       PRES   REMARKS
KINROSS        CLEAR      9   7  92 S3        30.40F
6HR MIN TEMP:   9; 6HR MAX TEMP:  16;

MACKINAC ISLAN CLEAR     13   7  75 S12       30.41F WCI  -1
NEWBERRY       CLOUDY    12   9  87 S14       30.36S WCI  -3
S. S. MARIE    PTCLDY     6   2  83 SE5       30.40F
6HR MIN TEMP:   5; 6HR MAX TEMP:  15;

$$
MIZ004>006-011>014-085-010700-
CENTRAL UPPER MICHIGAN

CITY           SKY/WX    TMP DP  RH WIND       PRES   REMARKS
MANISTIQUE     PTCLDY    14   3  62 W6        30.37F
ESCANABA       MOCLDY    10   0  61 SW6       30.39F
6HR MIN TEMP:  10; 6HR MAX TEMP:  16;

MENOMINEE      CLOUDY    14   1  57 SW7       30.38F
6HR MIN TEMP:  10; 6HR MAX TEMP:  16;

SAWYER-GWINN   PTCLDY     7  -1  67 SW13      30.28F WCI  -9
$$
MIZ001>003-009>011-084-010700-
WESTERN UPPER MICHIGAN

CITY           SKY/WX    TMP DP  RH WIND       PRES   REMARKS
IRON MOUNTAIN  CLOUDY    11  -1  58 S7        30.29F
6HR MIN TEMP:   8; 6HR MAX TEMP:  19;

HOUGHTON       CLOUDY    12  -5  46 SW8       30.23F
6HR MIN TEMP:   4; 6HR MAX TEMP:  22;

COPPER HARBOR    N/A     16  -3  43 W6        30.24F
6HR MIN TEMP:   3; 6HR MAX TEMP:  18;

IRONWOOD       MOCLDY    12  -2  52 SW14      30.22F WCI  -3
6HR MIN TEMP:  12; 6HR MAX TEMP:  18;

$$

ABBREVIATIONS USED IN REMARKS
   TC - TEMPERATURE IN CELSIUS
  WCI - WIND CHILL INDEX
   HX - HEAT INDEX
  VSB - VISIBILITY



USA.gov is the U.S. government's official web portal to all federal, state and local government web resources and services.